Lid_Strength_Index
2 2 2 2 2 2 2 2 2 2 2 2 2 2 1 1 1 1 1 2 -0 -2 -2 -2 -2 -2 -2 -2 -2 -2 -2 -2 -2 -1 -1 -1 -1 -1 -1 -1 -1 -1 -1
2 2 2 2 2 2 2 2 3 2 2 2 2 2 2 2 1 1 1 1 1 -0 -1 -2 -2 -2 -2 -2 -2 -2 -2 -2 -2 -2 -2 -2 -2 -2 -2 -1 -2 -2 -1
2 2 2 2 2 2 2 3 3 3 3 3 3 3 2 2 2 2 2 2 1 1 -0 -1 -2 -2 -2 -3 -2 -2 -2 -2 -2 -2 -2 -2 -2 -2 -2 -1 -1 -1 -1
2 3 3 2 2 3 3 3 3 3 4 4 4 3 3 2 2 3 3 3 3 2 1 0 -1 -2 -2 -3 -3 -2 -2 -2 -2 -2 -2 -2 -2 -2 -2 -2 -2 -2 -2
2 2 3 3 3 3 3 3 4 4 4 3 3 3 3 4 4 3 4 3 3 3 2 1 1 0 -1 -2 -2 -3 -2 -2 -2 -2 -2 -2 -2 -2 -2 -2 -2 -2 -2
-0 1 2 3 3 3 2 3 3 3 3 3 3 4 4 4 4 4 4 4 3 3 3 3 2 2 1 -1 -2 -2 -2 -2 -2 -2 -2 -2 -2 -2 -2 -2 -2 -2 -2
0 1 1 1 2 2 3 3 3 4 4 4 4 5 4 4 4 4 4 4 4 3 4 3 3 2 1 -0 -1 -2 -2 -3 -2 -2 -2 -2 -2 -2 -2 -2 -2 -2 -1
-0 0 1 1 1 2 3 3 4 4 5 4 4 5 6 4 5 3 3 3 3 3 3 3 3 3 2 2 1 -1 -2 -3 -3 -2 -2 -2 -2 -2 -2 -2 -2 -2 -2
0 1 1 1 1 2 2 2 3 3 4 3 3 3 5 6 4 3 3 3 4 4 4 4 4 3 3 3 2 1 -0 -1 -2 -2 -2 -2 -2 -2 -2 -2 -2 -2 -2
0 0 0 1 1 1 2 2 2 2 3 4 3 3 3 3 5 6 5 4 5 5 5 4 5 4 4 3 3 3 2 1 -0 -1 -1 -1 -2 -2 -2 -2 -2 -2 -2
0 0 0 1 1 1 1 1 1 1 1 2 2 3 4 4 5 6 7 6 5 6 6 6 5 4 3 3 3 4 3 1 1 1 0 -0 -1 -1 -1 -1 -2 -2 -2
4 4 4 3 4 4 4 4 3 4 4 3 3 3 4 5 5 6 7 7 8 7 7 5 5 4 4 4 4 4 3 2 1 1 1 1 1 -0 -1 -1 -2 -2 -2
6 6 6 7 7 7 7 6 7 7 7 7 7 6 5 6 5 6 7 8 9 7 7 7 5 5 4 5 5 6 5 3 2 2 2 2 1 1 1 -0 -1 -1 -1
8 8 8 8 8 8 8 8 8 8 9 9 9 9 8 8 7 7 7 8 10 10 10 10 8 7 7 6 5 6 5 5 3 3 2 2 1 1 1 0 -0 -1 -1
10 10 10 10 10 10 10 10 10 10 11 11 10 10 10 10 9 9 8 8 9 12 13 11 11 8 8 7 7 6 6 6 4 3 3 2 2 1 1 1 0 0 -0
11 11 11 11 11 11 11 11 11 11 12 12 11 12 12 11 10 10 9 9 9 9 12 10 9 8 8 8 7 7 7 7 5 4 3 2 2 2 2 2 2 2 1
12 12 12 12 12 13 13 12 12 12 13 13 13 13 12 12 11 11 10 10 10 10 11 11 10 9 10 10 9 8 7 7 6 4 3 3 3 3 3 3 3 3 3
12 13 13 13 13 13 13 13 13 13 14 14 14 13 13 12 12 12 12 12 11 11 12 13 12 12 11 10 9 9 8 7 6 5 4 4 4 4 5 4 4 4 4
14 14 14 14 14 14 14 13 13 14 14 14 14 14 14 14 14 14 13 12 12 11 11 13 13 12 11 10 10 9 8 8 8 7 6 6 6 6 6 5 5 4 3
15 15 15 15 15 15 14 14 14 15 15 14 13 14 14 14 15 14 13 13 13 13 13 13 13 13 11 10 10 10 10 9 9 9 8 8 8 7 6 5 5 5 4
16 15 16 16 15 15 14 15 15 15 15 15 15 14 14 14 13 12 13 13 13 13 13 13 13 12 12 11 11 11 11 10 10 10 10 10 9 9 8 6 5 4 4
16 16 16 16 16 15 14 13 13 15 15 15 15 15 14 14 13 12 11 11 11 12 13 12 12 12 12 12 11 11 11 11 12 11 12 12 10 10 8 6 4 4 4
16 16 16 16 17 17 14 13 13 15 15 15 15 14 14 14 13 14 12 10 10 9 9 10 12 12 12 11 11 10 10 11 11 10 10 13 11 12 8 6 5 5 5
17 17 17 17 17 17 14 13 13 15 15 15 15 15 15 14 13 13 12 12 11 11 11 10 10 10 10 10 10 10 10 10 9 9 9 13 12 13 12 11 5 6 6
18 19 18 20 20 19 14 13 13 15 15 15 14 15 15 13 12 11 12 12 11 10 9 9 9 10 10 10 10 10 10 10 11 11 10 11 12 13 13 13 12 7 7
18 18 18 20 20 20 16 14 13 16 17 15 15 14 13 11 11 10 10 10 11 11 10 16 16 14 12 12 10 11 10 11 11 12 10 11 11 11 14 12 13 13 13